George, South Africa

10:00 PM SAST on July 20, 2017 (GMT +0200)
George

Weather History for FAGG - July, 2013

Change the Weather History Date:

Thursday, July 4, 2013

  Actual Average Record
Temperature  
Mean Temperature 52 °F -  
Max Temperature 59 °F 64 °F 80 °F (2000)
Min Temperature 46 °F 44 °F 36 °F (2016)
Degree Days  
Heating Degree Days 12    
Growing Degree Days 2 (Base 50)    
Moisture  
Dew Point 48 °F    
Average Humidity 82    
Maximum Humidity 94    
Minimum Humidity 65    
Precipitation  
Precipitation 0.00 in - - ()
Sea Level Pressure  
Sea Level Pressure 30.26 in    
Wind  
Wind Speed 7 mph ()    
Max Wind Speed 17 mph    
Max Gust Speed -    
Visibility 7.2 miles    
Events Rain    
Averages and records for this station are not official NWS values.
T = Trace of Precipitation, MM = Missing Value Source: Averaged Metar Reports

Daily Weather History Graph

Daily Weather History Graph

Search for Another Location

Airport or City:

Trip Planner

Search our weather history database for the weather conditions in past years. The results will help you decide how hot, cold, wet, or windy it might be!

Date:

Astronomy

Jul. 04, 2013 Rise Set
Actual Time 7:36 AM SAST 5:33 PM SAST
Civil Twilight 7:08 AM SAST 6:01 PM SAST
Nautical Twilight 6:37 AM SAST 6:32 PM SAST
Astronomical Twilight 6:07 AM SAST 7:02 PM SAST
Moon 4:11 AM SAST (7/4) 2:44 PM SAST (7/4)
Length of Visible Light 10h 52m
Length of Day
9h 57m
Waning Crescent, 13% of the Moon is Illuminated
Jul 4
Waning Crescent
Jul 8
New
Jul 16
First Quarter
Jul 22
Full
Jul 29
Last Quarter

Hourly Weather History & Observations

Time (SAST) Temp. Windchill Dew Point Humidity Pressure Visibility Wind Dir Wind Speed Gust Speed Precip Events Conditions
12:00 AM 46.4 °F 44.3 °F 44.6 °F 93% 30.27 in - NW 4.6 mph - N/A   Clear
1:00 AM 46.4 °F - 42.8 °F 87% 30.27 in 6.2 mi NNW 2.3 mph - N/A   Scattered Clouds
2:00 AM 48 °F - 44 °F 79% 30.30 in 31 mi North 3.5 mph - -  
2:00 AM 48.2 °F - 44.6 °F 87% 30.27 in 6.2 mi NNE 3.5 mph - N/A   Scattered Clouds
3:00 AM 46.4 °F - 44.6 °F 93% 30.27 in 6.2 mi East 1.2 mph - N/A   Mostly Cloudy
4:00 AM 48.2 °F - 44.6 °F 87% 30.30 in 3.7 mi NE 3.5 mph - N/A   Overcast
5:00 AM 50.0 °F - 46.4 °F 87% 30.27 in 3.1 mi NE 3.5 mph - N/A   Light Drizzle
6:00 AM 50.0 °F - 48.2 °F 94% 30.30 in - NE 3.5 mph - N/A   Overcast
7:00 AM 50.0 °F - 48.2 °F 94% 30.30 in 4.3 mi East 8.1 mph - N/A Rain Light Rain
8:00 AM 51 °F - 48 °F 87% 30.31 in 12 mi East 8.1 mph - - Rain Light Rain
8:00 AM 50.0 °F - 48.2 °F 94% 30.30 in 6.2 mi East 8.1 mph - N/A   Mostly Cloudy
9:00 AM 51.8 °F - 48.2 °F 88% 30.33 in 6.2 mi East 11.5 mph - N/A   Scattered Clouds
10:00 AM 53.6 °F - 50.0 °F 88% 30.33 in 6.2 mi East 13.8 mph - N/A   Scattered Clouds
11:00 AM 56 °F - 50 °F 74% 30.35 in 12 mi East 12.7 mph - -   Mostly Cloudy
11:00 AM 55.4 °F - 51.8 °F 88% 30.33 in 6.2 mi East 12.7 mph - N/A   Scattered Clouds
12:00 PM 57.2 °F - 50.0 °F 77% 30.33 in 6.2 mi East 12.7 mph - N/A   Scattered Clouds
1:00 PM 59.0 °F - 48.2 °F 67% 30.27 in 6.2 mi East 16.1 mph - N/A   Scattered Clouds
2:00 PM 58 °F - 49 °F 65% 30.26 in 12 mi ESE 17.3 mph - -   Mostly Cloudy
2:00 PM 59.0 °F - 50.0 °F 72% 30.24 in 6.2 mi East 13.8 mph - N/A   Scattered Clouds
3:00 PM 57.2 °F - 48.2 °F 72% 30.21 in 6.2 mi East 13.8 mph - N/A   Mostly Cloudy
4:00 PM 57.2 °F - 48.2 °F 72% 30.21 in 6.2 mi East 13.8 mph - N/A   Mostly Cloudy
5:00 PM 56 °F - 49 °F 70% 30.22 in 12 mi East 15.0 mph - -   Mostly Cloudy
5:00 PM 55.4 °F - 48.2 °F 77% 30.21 in 6.2 mi East 11.5 mph - N/A   Mostly Cloudy
6:00 PM 53.6 °F - 48.2 °F 82% 30.18 in 6.2 mi East 11.5 mph - N/A   Scattered Clouds
7:00 PM 53.6 °F - 48.2 °F 82% 30.18 in - East 11.5 mph - N/A   Clear
8:00 PM 53 °F - 48 °F 78% 30.17 in 12 mi ESE 11.5 mph - -   Mostly Cloudy
8:00 PM 53.6 °F - 48.2 °F 82% 30.15 in - ESE 10.4 mph - N/A   Clear
9:00 PM 51.8 °F - 48.2 °F 88% 30.15 in - East 8.1 mph - N/A   Clear
10:00 PM 51.8 °F - 48.2 °F 88% 30.15 in - East 6.9 mph - N/A   Clear